time, Switch, Flow(0), Analog(2)
yyyy/mm/dd HH:MM:SS.fff, True=FILTERED|False=TOTAL, L/min, V
2023/06/30 08:00:03.404, True, 3.979, 0.139620
2023/06/30 08:00:03.900, True, 3.710, 0.141451
2023/06/30 08:00:04.403, True, 2.319, 0.141604
2023/06/30 08:00:04.908, True, 1.658, 0.142901
2023/06/30 08:00:05.404, True, 1.011, 0.140841
2023/06/30 08:00:05.907, True, 0.995, 0.143511
2023/06/30 08:00:06.411, True, 1.326, 0.141604
2023/06/30 08:00:06.908, True, 1.011, 0.140764
2023/06/30 08:00:07.411, True, 0.995, 0.141985
2023/06/30 08:00:07.915, True, 1.327, 0.142977
2023/06/30 08:00:08.411, True, 1.010, 0.144579
2023/06/30 08:00:08.916, True, 0.995, 0.142290
2023/06/30 08:00:09.420, True, 0.995, 0.139239
2023/06/30 08:00:09.915, True, 1.011, 0.141527
2023/06/30 08:00:10.419, True, 1.326, 0.141909
2023/06/30 08:00:10.924, True, 0.996, 0.143282
2023/06/30 08:00:11.420, True, 1.009, 0.143893
2023/06/30 08:00:11.924, True, 0.995, 0.141680
2023/06/30 08:00:12.427, True, 0.996, 0.143053
2023/06/30 08:00:12.924, True, 1.009, 0.140536
2023/06/30 08:00:13.428, True, 0.995, 0.142061
2023/06/30 08:00:13.931, True, 0.995, 0.141299
2023/06/30 08:00:14.428, True, 1.012, 0.141527
2023/06/30 08:00:14.931, True, 0.993, 0.141527
2023/06/30 08:00:15.436, True, 1.326, 0.141833
2023/06/30 08:00:15.932, True, 1.011, 0.143282
2023/06/30 08:00:16.436, True, 0.995, 0.142901
2023/06/30 08:00:16.940, True, 0.994, 0.142519
2023/06/30 08:00:17.436, True, 1.013, 0.141299
2023/06/30 08:00:17.940, True, 0.993, 0.140612
2023/06/30 08:00:18.443, True, 0.995, 0.140917
2023/06/30 08:00:18.940, True, 1.010, 0.144350
2023/06/30 08:00:19.444, True, 0.995, 0.141985
2023/06/30 08:00:19.948, True, 0.994, 0.142214
2023/06/30 08:00:20.444, True, 1.011, 0.142977
2023/06/30 08:00:20.948, True, 0.995, 0.141527
2023/06/30 08:00:21.452, True, 1.327, 0.143130
2023/06/30 08:00:21.948, True, 1.010, 0.144503
2023/06/30 08:00:22.452, True, 0.995, 0.142138
2023/06/30 08:00:22.948, True, 1.011, 0.143282
2023/06/30 08:00:23.452, True, 0.995, 0.140993
2023/06/30 08:00:23.956, True, 0.995, 0.142290
2023/06/30 08:00:24.452, True, 1.348, 0.140459
2023/06/30 08:00:24.956, True, 0.995, 0.142672
2023/06/30 08:00:25.460, True, 0.995, 0.142977
2023/06/30 08:00:25.956, True, 1.348, 0.143511
2023/06/30 08:00:26.460, True, 0.996, 0.142214
2023/06/30 08:00:26.964, True, 0.994, 0.145266
2023/06/30 08:00:27.460, True, 1.011, 0.140307
2023/06/30 08:00:27.964, True, 0.995, 0.142977
2023/06/30 08:00:28.467, True, 0.995, 0.140459
2023/06/30 08:00:28.964, True, 1.011, 0.144808
2023/06/30 08:00:29.468, True, 0.995, 0.142596
2023/06/30 08:00:29.972, True, 0.996, 0.143282
2023/06/30 08:00:30.468, True, 1.009, 0.142214
2023/06/30 08:00:30.972, True, 0.995, 0.142824
2023/06/30 08:00:31.476, True, 0.995, 0.140764
2023/06/30 08:00:31.972, True, 1.011, 0.141833
2023/06/30 08:00:32.476, True, 0.995, 0.139849
2023/06/30 08:00:32.979, True, 0.995, 0.141222
2023/06/30 08:00:33.476, True, 1.347, 0.140230
2023/06/30 08:00:33.980, True, 0.995, 0.141985
2023/06/30 08:00:34.484, True, 0.995, 0.140307
2023/06/30 08:00:34.979, True, 1.012, 0.140993
2023/06/30 08:00:35.483, True, 0.994, 0.143206
2023/06/30 08:00:35.980, True, 1.011, 0.141756
2023/06/30 08:00:36.484, True, 0.663, 0.143130
2023/06/30 08:00:36.988, True, 1.326, 0.142138
2023/06/30 08:00:37.483, True, 1.011, 0.140764
2023/06/30 08:00:37.988, True, 0.995, 0.140459
2023/06/30 08:00:38.492, True, 0.995, 0.142824
2023/06/30 08:00:38.988, True, 1.013, 0.145342
2023/06/30 08:00:39.492, True, 0.993, 0.142214
2023/06/30 08:00:39.996, True, 1.326, 0.143511
2023/06/30 08:00:40.492, True, 1.011, 0.143587
2023/06/30 08:00:40.996, True, 0.994, 0.141604
2023/06/30 08:00:41.500, True, 0.995, 0.141985
2023/06/30 08:00:41.996, True, 1.011, 0.141985
2023/06/30 08:00:42.500, True, 0.994, 0.143053
2023/06/30 08:00:43.004, True, 0.995, 0.142748
2023/06/30 08:00:43.500, True, 1.011, 0.142367
2023/06/30 08:00:44.004, True, 0.663, 0.141527
2023/06/30 08:00:44.508, True, 0.995, 0.140459
2023/06/30 08:00:45.004, True, 1.011, 0.141756
2023/06/30 08:00:45.508, True, 0.995, 0.141756
2023/06/30 08:00:46.004, True, 1.011, 0.143435
2023/06/30 08:00:46.508, True, 0.995, 0.142901
2023/06/30 08:00:47.012, True, 0.995, 0.140307
2023/06/30 08:00:47.508, True, 1.011, 0.140993
2023/06/30 08:00:48.012, True, 0.996, 0.141909
2023/06/30 08:00:48.516, True, 1.325, 0.141909
2023/06/30 08:00:49.012, True, 1.011, 0.143587
2023/06/30 08:00:49.515, True, 0.995, 0.142443
2023/06/30 08:00:50.020, True, 1.327, 0.142138
2023/06/30 08:00:50.515, True, 1.011, 0.140688
2023/06/30 08:00:51.020, True, 0.995, 0.144045
2023/06/30 08:00:51.524, True, 0.995, 0.140764
2023/06/30 08:00:52.019, True, 1.011, 0.141756
2023/06/30 08:00:52.523, True, 0.995, 0.141985
2023/06/30 08:00:53.028, True, 0.994, 0.141070
2023/06/30 08:00:53.524, True, 1.011, 0.140459
2023/06/30 08:00:54.028, True, 0.995, 0.140841
2023/06/30 08:00:54.532, True, 0.995, 0.142824
2023/06/30 08:00:55.028, True, 1.011, 0.143282
2023/06/30 08:00:55.532, True, 0.995, 0.141833
2023/06/30 08:00:56.035, True, 0.996, 0.142596
2023/06/30 08:00:56.540, True, 0.993, 0.141909
2023/06/30 08:00:57.036, True, 1.012, 0.143587
2023/06/30 08:00:57.540, True, 0.994, 0.143206
2023/06/30 08:00:58.036, True, 1.011, 0.142672
2023/06/30 08:00:58.540, True, 1.328, 0.144045
2023/06/30 08:00:59.043, True, 0.993, 0.145266
2023/06/30 08:00:59.548, True, 0.995, 0.143359
2023/06/30 08:01:00.044, True, 1.012, 0.142748
2023/06/30 08:01:00.548, True, 0.993, 0.143053
2023/06/30 08:01:01.052, True, 0.995, 0.145724
2023/06/30 08:01:01.547, True, 1.011, 0.143511
2023/06/30 08:01:02.052, True, 0.995, 0.145266
2023/06/30 08:01:02.556, True, 1.326, 0.145037
2023/06/30 08:01:03.051, True, 1.011, 0.143587
2023/06/30 08:01:03.556, True, 0.995, 0.145495
2023/06/30 08:01:04.052, True, 1.010, 0.144503
2023/06/30 08:01:04.556, True, 0.995, 0.144808
2023/06/30 08:01:05.060, True, 0.995, 0.145495
2023/06/30 08:01:05.563, True, 1.326, 0.143740
2023/06/30 08:01:06.059, True, 1.011, 0.146258
2023/06/30 08:01:06.564, True, 0.995, 0.144808
2023/06/30 08:01:07.060, True, 1.012, 0.145647
2023/06/30 08:01:07.564, True, 0.994, 0.145418
2023/06/30 08:01:08.067, True, 0.995, 0.144656
2023/06/30 08:01:08.571, True, 0.994, 0.146792
2023/06/30 08:01:09.067, True, 1.011, 0.145800
2023/06/30 08:01:09.572, True, 0.663, 0.146105
2023/06/30 08:01:10.075, True, 1.328, 0.146181
2023/06/30 08:01:10.572, True, 1.009, 0.145342
2023/06/30 08:01:11.076, True, 0.996, 0.147173
2023/06/30 08:01:11.579, True, 0.994, 0.145418
2023/06/30 08:01:12.084, True, 0.995, 0.145876
2023/06/30 08:01:12.580, True, 1.012, 0.147860
2023/06/30 08:01:13.083, True, 0.995, 0.146487
2023/06/30 08:01:13.588, True, 0.994, 0.145495
2023/06/30 08:01:14.084, True, 1.348, 0.149844
2023/06/30 08:01:14.587, True, 0.994, 0.148852
2023/06/30 08:01:15.091, True, 0.996, 0.146487
2023/06/30 08:01:15.588, True, 1.011, 0.149233
2023/06/30 08:01:16.092, True, 0.994, 0.147555
2023/06/30 08:01:16.596, True, 0.996, 0.147021
2023/06/30 08:01:17.092, True, 1.010, 0.145953
2023/06/30 08:01:17.596, True, 0.995, 0.148318
2023/06/30 08:01:18.100, True, 0.995, 0.148852
2023/06/30 08:01:18.596, True, 1.011, 0.147631
2023/06/30 08:01:19.100, True, 0.995, 0.147326
2023/06/30 08:01:19.604, True, 0.995, 0.148241
2023/06/30 08:01:20.100, True, 1.010, 0.147402
2023/06/30 08:01:20.603, True, 0.995, 0.148394
2023/06/30 08:01:21.100, True, 1.011, 0.147555
2023/06/30 08:01:21.604, True, 0.995, 0.147021
2023/06/30 08:01:22.108, True, 0.996, 0.147707
2023/06/30 08:01:22.604, True, 1.009, 0.146487
2023/06/30 08:01:23.108, True, 0.995, 0.148775
2023/06/30 08:01:23.612, True, 0.995, 0.146181
2023/06/30 08:01:24.108, True, 1.011, 0.145800
2023/06/30 08:01:24.612, True, 0.995, 0.147860
2023/06/30 08:01:25.116, True, 1.326, 0.146715
2023/06/30 08:01:25.612, True, 1.011, 0.147784
2023/06/30 08:01:26.116, True, 0.995, 0.147936
2023/06/30 08:01:26.612, True, 1.010, 0.149004
2023/06/30 08:01:27.116, True, 0.995, 0.148775
2023/06/30 08:01:27.620, True, 0.995, 0.149462
2023/06/30 08:01:28.116, True, 1.010, 0.147555
2023/06/30 08:01:28.620, True, 1.326, 0.147173
2023/06/30 08:01:29.123, True, 0.995, 0.147326
2023/06/30 08:01:29.628, True, 0.995, 0.149004
2023/06/30 08:01:30.124, True, 1.011, 0.147097
2023/06/30 08:01:30.628, True, 1.326, 0.147936
2023/06/30 08:01:31.131, True, 0.995, 0.148852
2023/06/30 08:01:31.628, True, 1.011, 0.146410
2023/06/30 08:01:32.132, True, 0.995, 0.148318
2023/06/30 08:01:32.635, True, 0.995, 0.147555
2023/06/30 08:01:33.132, True, 1.011, 0.148089
2023/06/30 08:01:33.636, True, 0.995, 0.148775
2023/06/30 08:01:34.139, True, 0.995, 0.149538
2023/06/30 08:01:34.636, True, 1.011, 0.148547
2023/06/30 08:01:35.140, True, 0.995, 0.147784
2023/06/30 08:01:35.643, True, 0.995, 0.147631
2023/06/30 08:01:36.139, True, 1.012, 0.149462
2023/06/30 08:01:36.644, True, 0.996, 0.150149
2023/06/30 08:01:37.147, True, 1.324, 0.150301
2023/06/30 08:01:37.643, True, 1.011, 0.147784
2023/06/30 08:01:38.147, True, 0.995, 0.149844
2023/06/30 08:01:38.651, True, 0.995, 0.149310
2023/06/30 08:01:39.147, True, 1.011, 0.150607
2023/06/30 08:01:39.652, True, 1.326, 0.151064
2023/06/30 08:01:40.156, True, 0.995, 0.147250
2023/06/30 08:01:40.652, True, 1.011, 0.146868
2023/06/30 08:01:41.156, True, 0.995, 0.148623
2023/06/30 08:01:41.660, True, 0.995, 0.149157
2023/06/30 08:01:42.156, True, 1.011, 0.146258
2023/06/30 08:01:42.659, True, 0.995, 0.148699
2023/06/30 08:01:43.163, True, 1.326, 0.148775
2023/06/30 08:01:43.660, True, 1.011, 0.149767
2023/06/30 08:01:44.164, True, 0.996, 0.149844
2023/06/30 08:01:44.667, True, 0.994, 0.147478
2023/06/30 08:01:45.164, True, 1.011, 0.147860
2023/06/30 08:01:45.668, True, 0.996, 0.149310
2023/06/30 08:01:46.172, True, 0.994, 0.149157
2023/06/30 08:01:46.667, True, 1.011, 0.149767
2023/06/30 08:01:47.172, True, 0.996, 0.147860
2023/06/30 08:01:47.676, True, 0.995, 0.149920
2023/06/30 08:01:48.171, True, 1.011, 0.149691
2023/06/30 08:01:48.675, True, 1.326, 0.149233
2023/06/30 08:01:49.180, True, 0.994, 0.147936
2023/06/30 08:01:49.676, True, 1.010, 0.147936
2023/06/30 08:01:50.179, True, 0.995, 0.151446
2023/06/30 08:01:50.684, True, 0.996, 0.149767
2023/06/30 08:01:51.180, True, 1.011, 0.148241
2023/06/30 08:01:51.684, True, 0.994, 0.148318
2023/06/30 08:01:52.188, True, 0.995, 0.149615
2023/06/30 08:01:52.684, True, 1.012, 0.148928
2023/06/30 08:01:53.187, True, 1.326, 0.149996
2023/06/30 08:01:53.692, True, 0.995, 0.148318
2023/06/30 08:01:54.188, True, 1.009, 0.148013
2023/06/30 08:01:54.692, True, 0.995, 0.149004
2023/06/30 08:01:55.196, True, 0.995, 0.148470
2023/06/30 08:01:55.692, True, 1.011, 0.150835
2023/06/30 08:01:56.195, True, 0.995, 0.150072
2023/06/30 08:01:56.700, True, 0.996, 0.149615
2023/06/30 08:01:57.196, True, 1.009, 0.150988
2023/06/30 08:01:57.700, True, 1.327, 0.147326
2023/06/30 08:01:58.204, True, 0.995, 0.149920
2023/06/30 08:01:58.700, True, 1.011, 0.148623
2023/06/30 08:01:59.204, True, 0.995, 0.148394
2023/06/30 08:01:59.708, True, 0.995, 0.148852
2023/06/30 08:02:00.204, True, 1.011, 0.148699
2023/06/30 08:02:00.708, True, 0.995, 0.149310
2023/06/30 08:02:01.204, True, 1.012, 0.150912
2023/06/30 08:02:01.708, True, 0.994, 0.147860
2023/06/30 08:02:02.212, True, 1.326, 0.149310
2023/06/30 08:02:02.708, True, 1.012, 0.149538
2023/06/30 08:02:03.212, True, 0.994, 0.148470
2023/06/30 08:02:03.716, True, 0.995, 0.147250
2023/06/30 08:02:04.212, True, 1.011, 0.148775
2023/06/30 08:02:04.716, True, 0.995, 0.147784
2023/06/30 08:02:05.220, True, 1.326, 0.149538
2023/06/30 08:02:05.716, True, 1.011, 0.151293
2023/06/30 08:02:06.219, True, 0.995, 0.148928
2023/06/30 08:02:06.724, True, 0.995, 0.148089
2023/06/30 08:02:07.220, True, 1.011, 0.147326
2023/06/30 08:02:07.724, True, 1.326, 0.149691
2023/06/30 08:02:08.220, True, 1.011, 0.149310
2023/06/30 08:02:08.724, True, 0.995, 0.149004
2023/06/30 08:02:09.228, True, 0.995, 0.149767
2023/06/30 08:02:09.724, True, 1.011, 0.145266
2023/06/30 08:02:10.228, True, 1.326, 0.150378
2023/06/30 08:02:10.732, True, 0.995, 0.147784
2023/06/30 08:02:11.228, True, 1.011, 0.148013
2023/06/30 08:02:11.732, True, 0.995, 0.148089
2023/06/30 08:02:12.228, True, 1.011, 0.149233
2023/06/30 08:02:12.732, True, 0.995, 0.148089
2023/06/30 08:02:13.236, True, 0.996, 0.150759
2023/06/30 08:02:13.732, True, 1.010, 0.148241
2023/06/30 08:02:14.236, True, 0.995, 0.150149
2023/06/30 08:02:14.740, True, 0.995, 0.148775
2023/06/30 08:02:15.236, True, 1.011, 0.147402
2023/06/30 08:02:15.740, True, 0.995, 0.149767
2023/06/30 08:02:16.244, True, 0.995, 0.148928
2023/06/30 08:02:16.740, True, 1.011, 0.150149
2023/06/30 08:02:17.244, True, 0.995, 0.149233
2023/06/30 08:02:17.748, True, 0.995, 0.147173
2023/06/30 08:02:18.244, True, 1.011, 0.150225
2023/06/30 08:02:18.748, True, 0.995, 0.149691
2023/06/30 08:02:19.252, True, 0.995, 0.147097
2023/06/30 08:02:19.748, True, 1.011, 0.148089
2023/06/30 08:02:20.252, True, 0.995, 0.150454
2023/06/30 08:02:20.756, True, 0.995, 0.147326
2023/06/30 08:02:21.251, True, 1.011, 0.149844
2023/06/30 08:02:21.756, True, 0.996, 0.148165
2023/06/30 08:02:22.260, True, 0.663, 0.149538
2023/06/30 08:02:22.756, True, 1.011, 0.149004
2023/06/30 08:02:23.260, True, 0.995, 0.150607
2023/06/30 08:02:23.756, True, 1.011, 0.147021
2023/06/30 08:02:24.260, True, 0.994, 0.148547
2023/06/30 08:02:24.764, True, 0.995, 0.150072
2023/06/30 08:02:25.260, True, 1.011, 0.148928
2023/06/30 08:02:25.764, True, 0.995, 0.150683
2023/06/30 08:02:26.267, True, 0.995, 0.148852
2023/06/30 08:02:26.764, True, 1.011, 0.146563
2023/06/30 08:02:27.268, True, 0.996, 0.149996
2023/06/30 08:02:27.772, True, 0.994, 0.148318
2023/06/30 08:02:28.268, True, 1.012, 0.148775
2023/06/30 08:02:28.772, True, 0.994, 0.148623
2023/06/30 08:02:29.276, True, 0.995, 0.149538
2023/06/30 08:02:29.772, True, 0.674, 0.148775
2023/06/30 08:02:30.276, True, 1.326, 0.147555
2023/06/30 08:02:30.772, True, 1.011, 0.148928
2023/06/30 08:02:31.276, True, 0.995, 0.149462
2023/06/30 08:02:31.780, True, 0.995, 0.147860
2023/06/30 08:02:32.276, True, 1.011, 0.147478
2023/06/30 08:02:32.780, True, 0.995, 0.148775
2023/06/30 08:02:33.284, True, 0.995, 0.147326
2023/06/30 08:02:33.780, True, 1.011, 0.146487
2023/06/30 08:02:34.284, True, 0.995, 0.147784
2023/06/30 08:02:34.788, True, 0.995, 0.147173
2023/06/30 08:02:35.283, True, 1.011, 0.149310
2023/06/30 08:02:35.788, True, 0.995, 0.147860
2023/06/30 08:02:36.292, True, 0.996, 0.149844
2023/06/30 08:02:36.788, True, 1.010, 0.145953
2023/06/30 08:02:37.292, True, 0.995, 0.149081
2023/06/30 08:02:37.796, True, 0.995, 0.149081
2023/06/30 08:02:38.292, True, 1.011, 0.147555
2023/06/30 08:02:38.796, True, 0.995, 0.147631
2023/06/30 08:02:39.300, True, 0.995, 0.148318
2023/06/30 08:02:39.795, True, 1.011, 0.146563
2023/06/30 08:02:40.300, True, 0.995, 0.150912
2023/06/30 08:02:40.796, True, 1.011, 0.148318
2023/06/30 08:02:41.300, True, 0.995, 0.146715
2023/06/30 08:02:41.804, True, 0.995, 0.148623
2023/06/30 08:02:42.308, True, 0.995, 0.147860
2023/06/30 08:02:42.804, True, 1.011, 0.150835
2023/06/30 08:02:43.308, True, 0.995, 0.147250
2023/06/30 08:02:43.812, True, 0.663, 0.149157
2023/06/30 08:02:44.308, True, 1.012, 0.148241
2023/06/30 08:02:44.812, True, 0.994, 0.148013
2023/06/30 08:02:45.308, True, 1.011, 0.149691
2023/06/30 08:02:45.812, True, 0.995, 0.148089
2023/06/30 08:02:46.316, True, 1.326, 0.148547
2023/06/30 08:02:46.812, True, 1.011, 0.148775
2023/06/30 08:02:47.316, True, 0.995, 0.149691
2023/06/30 08:02:47.820, True, 0.996, 0.148699
2023/06/30 08:02:48.316, True, 1.010, 0.149157
2023/06/30 08:02:48.820, True, 0.995, 0.147784
2023/06/30 08:02:49.324, True, 0.995, 0.146944
2023/06/30 08:02:49.820, True, 1.011, 0.147250
2023/06/30 08:02:50.324, True, 0.995, 0.151675
2023/06/30 08:02:50.828, True, 0.996, 0.148775
2023/06/30 08:02:51.324, True, 1.010, 0.147784
2023/06/30 08:02:51.828, True, 0.995, 0.146410
2023/06/30 08:02:52.332, True, 0.995, 0.148165
2023/06/30 08:02:52.828, True, 1.012, 0.148089
2023/06/30 08:02:53.332, True, 0.994, 0.147173
2023/06/30 08:02:53.836, True, 0.995, 0.146639
2023/06/30 08:02:54.332, True, 1.011, 0.147250
2023/06/30 08:02:54.836, True, 0.995, 0.146029
2023/06/30 08:02:55.332, True, 0.674, 0.149004
2023/06/30 08:02:55.836, True, 1.326, 0.147097
2023/06/30 08:02:56.339, True, 0.995, 0.151141
2023/06/30 08:02:56.844, True, 0.995, 0.148394
2023/06/30 08:02:57.340, True, 1.011, 0.148775
2023/06/30 08:02:57.844, True, 0.995, 0.147784
2023/06/30 08:02:58.348, True, 0.995, 0.146181
2023/06/30 08:02:58.844, True, 1.011, 0.149004
2023/06/30 08:02:59.348, True, 0.995, 0.149844
2023/06/30 08:02:59.852, True, 0.995, 0.147173
2023/06/30 08:03:00.348, True, 1.011, 0.147326
2023/06/30 08:03:00.852, True, 0.995, 0.147707
2023/06/30 08:03:01.356, True, 0.995, 0.145876
2023/06/30 08:03:01.852, True, 1.011, 0.149310
2023/06/30 08:03:02.356, True, 0.995, 0.147402
2023/06/30 08:03:02.860, True, 0.995, 0.148470
2023/06/30 08:03:03.356, True, 1.011, 0.146868
2023/06/30 08:03:03.860, True, 0.995, 0.149538
2023/06/30 08:03:04.364, True, 0.995, 0.148775
2023/06/30 08:03:04.860, True, 1.011, 0.148089
2023/06/30 08:03:05.364, True, 0.995, 0.147707
2023/06/30 08:03:05.868, True, 0.995, 0.146029
2023/06/30 08:03:06.364, True, 1.011, 0.149233
2023/06/30 08:03:06.868, True, 1.327, 0.146715
2023/06/30 08:03:07.372, True, 0.994, 0.148623
2023/06/30 08:03:07.867, True, 1.011, 0.145876
2023/06/30 08:03:08.372, True, 0.994, 0.150149
2023/06/30 08:03:08.876, True, 0.995, 0.148013
2023/06/30 08:03:09.380, True, 0.995, 0.147707
2023/06/30 08:03:09.876, True, 1.011, 0.149004
2023/06/30 08:03:10.380, True, 1.326, 0.149920
2023/06/30 08:03:10.876, True, 0.675, 0.146792
2023/06/30 08:03:11.379, True, 1.325, 0.147707
2023/06/30 08:03:11.884, True, 0.995, 0.147860
2023/06/30 08:03:12.380, True, 1.011, 0.150454
2023/06/30 08:03:12.884, True, 0.995, 0.147478
2023/06/30 08:03:13.388, True, 0.996, 0.147784
2023/06/30 08:03:13.884, True, 1.009, 0.147326
2023/06/30 08:03:14.388, True, 0.995, 0.149767
2023/06/30 08:03:14.892, True, 0.995, 0.146487
2023/06/30 08:03:15.387, True, 1.011, 0.149996
2023/06/30 08:03:15.891, True, 0.995, 0.148699
2023/06/30 08:03:16.395, True, 0.995, 0.146639
2023/06/30 08:03:16.892, True, 1.348, 0.147936
2023/06/30 08:03:17.395, True, 0.663, 0.147784
2023/06/30 08:03:17.899, True, 0.995, 0.147555
2023/06/30 08:03:18.395, True, 1.011, 0.148089
2023/06/30 08:03:18.900, True, 0.995, 0.145571
2023/06/30 08:03:19.404, True, 0.995, 0.148165
2023/06/30 08:03:19.900, True, 1.011, 0.149920
2023/06/30 08:03:20.404, True, 0.663, 0.147250
2023/06/30 08:03:20.908, True, 0.995, 0.145495
2023/06/30 08:03:21.403, True, 1.011, 0.148165
2023/06/30 08:03:21.907, True, 0.994, 0.146487
2023/06/30 08:03:22.412, True, 1.327, 0.147250
2023/06/30 08:03:22.908, True, 1.011, 0.147173
2023/06/30 08:03:23.412, True, 0.994, 0.145495
2023/06/30 08:03:23.908, True, 1.013, 0.146868
2023/06/30 08:03:24.412, True, 0.994, 0.145495
2023/06/30 08:03:24.916, True, 0.995, 0.153887
2023/06/30 08:03:25.420, True, 0.663, 0.146487
2023/06/30 08:03:25.916, True, 1.011, 0.147555
2023/06/30 08:03:26.420, True, 0.995, 0.146181
2023/06/30 08:03:26.916, True, 1.011, 0.148470
2023/06/30 08:03:27.420, True, 0.996, 0.147936
2023/06/30 08:03:27.923, True, 0.994, 0.145647
2023/06/30 08:03:28.420, True, 1.010, 0.148852
2023/06/30 08:03:28.924, True, 0.994, 0.147097
2023/06/30 08:03:29.428, True, 0.996, 0.148470
2023/06/30 08:03:29.924, True, 1.011, 0.148089
2023/06/30 08:03:30.428, True, 0.995, 0.146410
2023/06/30 08:03:30.932, True, 0.993, 0.146181
2023/06/30 08:03:31.428, True, 1.350, 0.144808
2023/06/30 08:03:31.932, True, 0.994, 0.148775
2023/06/30 08:03:32.436, True, 0.994, 0.147173
2023/06/30 08:03:32.939, True, 0.997, 0.147555
2023/06/30 08:03:33.436, True, 1.009, 0.146181
2023/06/30 08:03:33.940, True, 0.995, 0.146639
2023/06/30 08:03:34.436, True, 1.012, 0.147326
2023/06/30 08:03:34.940, True, 0.994, 0.147707
2023/06/30 08:03:35.443, True, 0.996, 0.147173
2023/06/30 08:03:35.940, True, 0.673, 0.147860
2023/06/30 08:03:36.444, True, 0.995, 0.146487
2023/06/30 08:03:36.947, True, 1.326, 0.147402
2023/06/30 08:03:37.444, True, 1.011, 0.145418
2023/06/30 08:03:37.948, True, 0.997, 0.146563
2023/06/30 08:03:38.452, True, 0.993, 0.146563
2023/06/30 08:03:38.948, True, 1.011, 0.147173
2023/06/30 08:03:39.452, True, 0.995, 0.148089
2023/06/30 08:03:39.956, True, 0.663, 0.146715
2023/06/30 08:03:40.452, True, 1.011, 0.146029
2023/06/30 08:03:40.956, True, 0.995, 0.144732
2023/06/30 08:03:41.460, True, 0.995, 0.146334
2023/06/30 08:03:41.956, True, 1.011, 0.149081
2023/06/30 08:03:42.460, True, 0.995, 0.147402
2023/06/30 08:03:42.964, True, 0.995, 0.147555
2023/06/30 08:03:43.460, True, 1.011, 0.147097
2023/06/30 08:03:43.964, True, 0.995, 0.146868
2023/06/30 08:03:44.468, True, 0.995, 0.147936
2023/06/30 08:03:44.964, True, 1.011, 0.148165
2023/06/30 08:03:45.468, True, 0.995, 0.147860
2023/06/30 08:03:45.964, True, 1.011, 0.147402
2023/06/30 08:03:46.468, True, 0.995, 0.145037
2023/06/30 08:03:46.972, True, 0.995, 0.146105
2023/06/30 08:03:47.476, True, 0.995, 0.147173
2023/06/30 08:03:47.972, True, 1.011, 0.146258
2023/06/30 08:03:48.476, True, 0.995, 0.146029
2023/06/30 08:03:48.980, True, 0.995, 0.149157
2023/06/30 08:03:49.476, True, 1.011, 0.147021
2023/06/30 08:03:49.980, True, 0.995, 0.147936
2023/06/30 08:03:50.484, True, 0.996, 0.146944
2023/06/30 08:03:50.980, True, 1.010, 0.145647
2023/06/30 08:03:51.484, True, 0.996, 0.146487
2023/06/30 08:03:51.980, True, 1.010, 0.149538
2023/06/30 08:03:52.484, True, 0.996, 0.148013
2023/06/30 08:03:52.988, True, 0.993, 0.148394
2023/06/30 08:03:53.484, True, 1.011, 0.148470
2023/06/30 08:03:53.988, True, 0.995, 0.147707
2023/06/30 08:03:54.492, True, 0.995, 0.146181
2023/06/30 08:03:54.988, True, 0.674, 0.148165
2023/06/30 08:03:55.492, True, 0.995, 0.147555
2023/06/30 08:03:55.996, True, 0.995, 0.147784
2023/06/30 08:03:56.492, True, 1.348, 0.145342
2023/06/30 08:03:56.996, True, 0.995, 0.145418
2023/06/30 08:03:57.500, True, 0.995, 0.149538
2023/06/30 08:03:57.996, True, 1.011, 0.144808
2023/06/30 08:03:58.500, True, 0.995, 0.146868
2023/06/30 08:03:58.996, True, 1.011, 0.146868
2023/06/30 08:03:59.500, True, 0.995, 0.148394
2023/06/30 08:04:00.003, True, 0.995, 0.146029
2023/06/30 08:04:00.500, True, 1.011, 0.146258
2023/06/30 08:04:01.004, True, 0.995, 0.146639
2023/06/30 08:04:01.508, True, 0.995, 0.147784
2023/06/30 08:04:02.004, True, 1.011, 0.146258
2023/06/30 08:04:02.508, True, 0.995, 0.149462
2023/06/30 08:04:03.012, True, 0.995, 0.146487
2023/06/30 08:04:03.508, True, 1.011, 0.145418
2023/06/30 08:04:04.012, True, 0.995, 0.146944
2023/06/30 08:04:04.516, True, 0.995, 0.146181
2023/06/30 08:04:05.011, True, 1.011, 0.145953
2023/06/30 08:04:05.516, True, 0.995, 0.147021
2023/06/30 08:04:06.020, True, 0.995, 0.148241
2023/06/30 08:04:06.515, True, 1.010, 0.147097
2023/06/30 08:04:07.020, True, 0.995, 0.144121
2023/06/30 08:04:07.524, True, 0.995, 0.145342
2023/06/30 08:04:08.020, True, 0.674, 0.146715
2023/06/30 08:04:08.524, True, 0.995, 0.146181
2023/06/30 08:04:09.028, True, 0.996, 0.143893
2023/06/30 08:04:09.524, True, 1.010, 0.145495
2023/06/30 08:04:10.028, True, 0.995, 0.148318
2023/06/30 08:04:10.532, True, 0.995, 0.147250
2023/06/30 08:04:11.028, True, 1.011, 0.144579
2023/06/30 08:04:11.532, True, 0.995, 0.149844
2023/06/30 08:04:12.036, True, 0.995, 0.147250
2023/06/30 08:04:12.532, True, 1.348, 0.148165